Weather History for Farmington, MO

Change the Weather History Date:

Wednesday, July 17, 2013

  Actual Average Record
Temperature  
Mean Temperature 80 °F -  
Max Temperature 91 °F 84 °F 95 °F (2012)
Min Temperature 68 °F 65 °F 51 °F (2014)
Cooling Degree Days 14    
Growing Degree Days 30 (Base 50)    
Moisture  
Dew Point 70 °F    
Average Humidity 74    
Maximum Humidity 94    
Minimum Humidity 46    
Precipitation  
Precipitation 0.00 in - - ()
Sea Level Pressure  
Sea Level Pressure 30.32 in    
Wind  
Wind Speed 1 mph (NE)    
Max Wind Speed 9 mph    
Max Gust Speed -    
Visibility 9 miles    
Events      
Averages and records for this station are not official NWS values.
T = Trace of Precipitation, MM = Missing Value Source: NWS Daily Summary

Daily Weather History Graph

Daily Weather History Graph

Search for Another Location

Airport:

Trip Planner

Search our weather history database for the weather conditions in past years. The results will help you decide how hot, cold, wet, or windy it might be!

Date:

Astronomy

Jul. 17, 2013 Rise Set
Actual Time 5:53 AM CDT 8:21 PM CDT
Civil Twilight 5:23 AM CDT 8:52 PM CDT
Nautical Twilight 4:45 AM CDT 9:29 PM CDT
Astronomical Twilight 4:04 AM CDT 10:10 PM CDT
Moon 3:12 PM CDT (7/17) 12:58 AM CDT (7/17)
Length of Visible Light 15h 28m
Length of Day
14h 28m
Waxing Gibbous, 67% of the Moon is Illuminated
Jul 17
Waxing Gibbous
Jul 22
Full
Jul 29
Last Quarter
Aug 6
New
Aug 14
First Quarter

Hourly Weather History & Observations

Time (CDT) Temp. Heat Index Dew Point Humidity Pressure Visibility Wind Dir Wind Speed Gust Speed Precip Events Conditions
12:15 AM 73.4 °F - 69.8 °F 88% 30.34 in 10.0 mi Calm Calm - N/A   Clear
12:35 AM 73.4 °F - 69.8 °F 88% 30.34 in 10.0 mi Calm Calm - N/A   Clear
12:55 AM 71.6 °F - 69.8 °F 94% 30.34 in 10.0 mi Calm Calm - N/A   Clear
1:15 AM 71.6 °F - 69.8 °F 94% 30.34 in 10.0 mi Calm Calm - N/A   Clear
1:35 AM 71.6 °F - 69.8 °F 94% 30.33 in 10.0 mi Calm Calm - N/A   Clear
1:55 AM 71.6 °F - 69.8 °F 94% 30.33 in 10.0 mi Calm Calm - N/A   Clear
2:15 AM 71.6 °F - 68.0 °F 88% 30.33 in 8.0 mi Calm Calm - N/A   Clear
2:35 AM 71.6 °F - 69.8 °F 94% 30.33 in 9.0 mi Calm Calm - N/A   Clear
2:55 AM 71.6 °F - 69.8 °F 94% 30.33 in 10.0 mi Calm Calm - N/A   Clear
3:15 AM 71.6 °F - 69.8 °F 94% 30.33 in 10.0 mi Calm Calm - N/A   Clear
3:35 AM 69.8 °F - 66.2 °F 88% 30.33 in 5.0 mi Calm Calm - N/A   Clear
3:55 AM 69.8 °F - 68.0 °F 94% 30.33 in 10.0 mi Calm Calm - N/A   Clear
4:15 AM 69.8 °F - 68.0 °F 94% 30.33 in 6.0 mi Calm Calm - N/A   Clear
4:35 AM 69.8 °F - 68.0 °F 94% 30.33 in 9.0 mi Calm Calm - N/A   Clear
4:55 AM 69.8 °F - 66.2 °F 88% 30.34 in 8.0 mi Calm Calm - N/A   Clear
5:15 AM 69.8 °F - 68.0 °F 94% 30.33 in 7.0 mi Calm Calm - N/A   Clear
5:35 AM 69.8 °F - 68.0 °F 94% 30.35 in 8.0 mi Calm Calm - N/A   Clear
5:55 AM 69.8 °F - 66.2 °F 88% 30.36 in 3.0 mi Calm Calm - N/A   Clear
6:15 AM 69.8 °F - 66.2 °F 88% 30.36 in 2.0 mi Calm Calm - N/A   Clear
6:35 AM 68.0 °F - 66.2 °F 94% 30.36 in 6.0 mi Calm Calm - N/A   Clear
6:55 AM 69.8 °F - 68.0 °F 94% 30.36 in 9.0 mi Calm Calm - N/A   Clear
7:15 AM 71.6 °F - 69.8 °F 94% 30.37 in 10.0 mi Calm Calm - N/A   Clear
7:35 AM 73.4 °F - 69.8 °F 88% 30.37 in 10.0 mi Calm Calm - N/A   Clear
7:55 AM 75.2 °F - 71.6 °F 89% 30.37 in 9.0 mi Calm Calm - N/A   Clear
8:15 AM 78.8 °F - 71.6 °F 78% 30.38 in 10.0 mi Calm Calm - N/A   Clear
8:35 AM 80.6 °F 84.6 °F 71.6 °F 74% 30.38 in 10.0 mi Calm Calm - N/A   Clear
8:55 AM 82.4 °F 87.2 °F 71.6 °F 70% 30.38 in 10.0 mi Calm Calm - N/A   Clear
9:15 AM 82.4 °F 87.2 °F 71.6 °F 70% 30.37 in 10.0 mi SSW 3.5 mph - N/A   Clear
9:35 AM 84.2 °F 88.4 °F 69.8 °F 62% 30.37 in 10.0 mi Calm Calm - N/A   Clear
9:55 AM 84.2 °F 89.6 °F 71.6 °F 66% 30.37 in 10.0 mi West 3.5 mph - N/A   Clear
10:15 AM 84.2 °F 88.4 °F 69.8 °F 62% 30.37 in 10.0 mi Calm Calm - N/A   Clear
10:35 AM 86.0 °F 90.4 °F 69.8 °F 58% 30.37 in 10.0 mi Calm Calm - N/A   Clear
10:55 AM 87.8 °F 92.6 °F 69.8 °F 55% 30.37 in 10.0 mi Calm Calm - N/A   Partly Cloudy
11:15 AM 87.8 °F 92.6 °F 69.8 °F 55% 30.37 in 10.0 mi NNE 3.5 mph - N/A   Mostly Cloudy
11:35 AM 87.8 °F 92.6 °F 69.8 °F 55% 30.36 in 10.0 mi NNW 4.6 mph - N/A   Overcast
11:55 AM 87.8 °F 92.6 °F 69.8 °F 55% 30.36 in 10.0 mi Calm Calm - N/A   Mostly Cloudy
12:15 PM 89.6 °F 96.2 °F 71.6 °F 55% 30.36 in 10.0 mi NNW 3.5 mph - N/A   Mostly Cloudy
12:35 PM 87.8 °F 92.6 °F 69.8 °F 55% 30.35 in 10.0 mi NE 5.8 mph - N/A   Overcast
12:55 PM 89.6 °F 94.7 °F 69.8 °F 52% 30.35 in 10.0 mi NE 4.6 mph - N/A   Scattered Clouds
1:15 PM 89.6 °F 94.7 °F 69.8 °F 52% 30.34 in 10.0 mi NE 5.8 mph - N/A   Partly Cloudy
1:35 PM 91.4 °F 96.8 °F 69.8 °F 49% 30.34 in 10.0 mi NE 9.2 mph - N/A   Scattered Clouds
1:55 PM 91.4 °F 96.8 °F 69.8 °F 49% 30.33 in 10.0 mi East 6.9 mph - N/A   Partly Cloudy
2:15 PM 91.4 °F 95.4 °F 68.0 °F 46% 30.32 in 10.0 mi Calm Calm - N/A   Mostly Cloudy
2:35 PM 91.4 °F 96.8 °F 69.8 °F 49% 30.31 in 10.0 mi East 9.2 mph - N/A   Mostly Cloudy
2:55 PM 91.4 °F 96.8 °F 69.8 °F 49% 30.31 in 10.0 mi East 4.6 mph - N/A   Scattered Clouds
3:15 PM 91.4 °F 96.8 °F 69.8 °F 49% 30.30 in 10.0 mi East 8.1 mph - N/A   Mostly Cloudy
3:35 PM 91.4 °F 96.8 °F 69.8 °F 49% 30.29 in 10.0 mi ENE 4.6 mph - N/A   Mostly Cloudy
3:55 PM 91.4 °F 96.8 °F 69.8 °F 49% 30.29 in 10.0 mi ESE 4.6 mph - N/A   Mostly Cloudy
4:15 PM 91.4 °F 96.8 °F 69.8 °F 49% 30.28 in 10.0 mi NE 4.6 mph - N/A   Scattered Clouds
4:35 PM 89.6 °F 93.4 °F 68.0 °F 49% 30.28 in 10.0 mi Calm Calm - N/A   Partly Cloudy
4:55 PM 89.6 °F 94.7 °F 69.8 °F 52% 30.27 in 10.0 mi NNE 3.5 mph - N/A   Clear
5:15 PM 89.6 °F 94.7 °F 69.8 °F 52% 30.27 in 10.0 mi ENE 3.5 mph - N/A   Clear
5:35 PM 87.8 °F 92.6 °F 69.8 °F 55% 30.26 in 10.0 mi SSW 3.5 mph - N/A   Clear
5:55 PM 86.0 °F 91.8 °F 71.6 °F 62% 30.26 in 10.0 mi Calm Calm - N/A   Partly Cloudy
6:15 PM 84.2 °F 90.9 °F 73.4 °F 70% 30.25 in 10.0 mi Calm Calm - N/A   Clear
6:35 PM 84.2 °F 90.9 °F 73.4 °F 70% 30.25 in 10.0 mi Calm Calm - N/A   Clear
6:55 PM 84.2 °F 90.9 °F 73.4 °F 70% 30.25 in 10.0 mi Calm Calm - N/A   Clear
7:15 PM 82.4 °F 87.2 °F 71.6 °F 70% 30.25 in 10.0 mi Calm Calm - N/A   Clear
7:35 PM 82.4 °F 88.2 °F 73.4 °F 74% 30.25 in 10.0 mi Calm Calm - N/A   Clear
7:55 PM 82.4 °F 88.2 °F 73.4 °F 74% 30.25 in 10.0 mi Calm Calm - N/A   Partly Cloudy
8:15 PM 82.4 °F 87.2 °F 71.6 °F 70% 30.25 in 10.0 mi Calm Calm - N/A   Clear
8:35 PM 80.6 °F 85.4 °F 73.4 °F 79% 30.25 in 10.0 mi Calm Calm - N/A   Clear
8:55 PM 78.8 °F - 73.4 °F 83% 30.26 in 10.0 mi Calm Calm - N/A   Clear
9:15 PM 78.8 °F - 73.4 °F 83% 30.26 in 10.0 mi Calm Calm - N/A   Clear
9:35 PM 77.0 °F - 73.4 °F 89% 30.27 in 10.0 mi Calm Calm - N/A   Clear
9:55 PM 75.2 °F - 73.4 °F 94% 30.27 in 10.0 mi Calm Calm - N/A   Clear
10:15 PM 77.0 °F - 73.4 °F 89% 30.27 in 10.0 mi Calm Calm - N/A   Clear
10:35 PM 75.2 °F - 71.6 °F 89% 30.27 in 10.0 mi Calm Calm - N/A   Clear
10:55 PM 75.2 °F - 71.6 °F 89% 30.27 in 7.0 mi Calm Calm - N/A   Clear
11:15 PM 73.4 °F - 71.6 °F 94% 30.27 in 7.0 mi Calm Calm - N/A   Clear
11:35 PM 73.4 °F - 71.6 °F 94% 30.27 in 9.0 mi Calm Calm - N/A   Clear
11:55 PM 73.4 °F - 71.6 °F 94% 30.27 in 10.0 mi Calm Calm - N/A   Clear